Time,TemperatureF,DewpointF,PressureIn,WindDirection,WindDirectionDegrees,WindSpeedMPH,WindSpeedGustMPH,Humidity,HourlyPrecipIn,Conditions,Clouds,dailyrainin,SoftwareType,DateUTC
2013-06-02 00:01:00,62.0,49.0,29.77,NNE,24,0.0,-999.0,62,-99.99,,,-99.99,,2013-06-02 07:01:00,
2013-06-02 00:11:00,62.0,49.0,29.77,NNE,24,0.0,-999.0,62,-99.99,,,-99.99,,2013-06-02 07:11:00,
2013-06-02 00:21:00,61.0,48.0,29.77,NNE,30,0.0,-999.0,63,-99.99,,,-99.99,,2013-06-02 07:21:00,
2013-06-02 00:31:00,60.0,47.0,29.77,ENE,77,1.0,-999.0,63,-99.99,,,-99.99,,2013-06-02 07:31:00,
2013-06-02 00:42:00,60.0,47.0,29.77,ENE,77,1.0,-999.0,63,-99.99,,,-99.99,,2013-06-02 07:42:00,
2013-06-02 00:52:00,60.0,48.0,29.76,ENE,78,0.0,-999.0,65,-99.99,,,-99.99,,2013-06-02 07:52:00,
2013-06-02 01:01:00,59.0,48.0,29.76,ENE,78,0.0,-999.0,66,-99.99,,,-99.99,,2013-06-02 08:01:00,
2013-06-02 01:11:00,59.0,48.0,29.76,ENE,78,0.0,-999.0,66,-99.99,,,-99.99,,2013-06-02 08:11:00,
2013-06-02 01:21:00,59.0,48.0,29.76,ENE,78,0.0,-999.0,67,-99.99,,,-99.99,,2013-06-02 08:21:00,
2013-06-02 01:31:00,58.0,47.0,29.75,ENE,78,0.0,-999.0,68,-99.99,,,-99.99,,2013-06-02 08:31:00,
2013-06-02 01:41:00,58.0,47.0,29.75,ENE,78,0.0,-999.0,68,-99.99,,,-99.99,,2013-06-02 08:41:00,
2013-06-02 01:52:00,58.0,48.0,29.75,East,79,0.0,-999.0,69,-99.99,,,-99.99,,2013-06-02 08:52:00,
2013-06-02 02:01:00,57.0,47.0,29.75,East,79,0.0,-999.0,69,-99.99,,,-99.99,,2013-06-02 09:01:00,
2013-06-02 02:11:00,57.0,47.0,29.75,East,79,0.0,-999.0,69,-99.99,,,-99.99,,2013-06-02 09:11:00,
2013-06-02 02:21:00,57.0,47.0,29.75,East,79,0.0,-999.0,70,-99.99,,,-99.99,,2013-06-02 09:21:00,
2013-06-02 02:32:00,57.0,47.0,29.75,East,79,0.0,-999.0,70,-99.99,,,-99.99,,2013-06-02 09:32:00,
2013-06-02 02:42:00,57.0,47.0,29.75,East,79,0.0,-999.0,70,-99.99,,,-99.99,,2013-06-02 09:42:00,
2013-06-02 02:53:00,56.0,47.0,29.74,ESE,115,1.0,-999.0,71,-99.99,,,-99.99,,2013-06-02 09:53:00,
2013-06-02 03:02:00,56.0,47.0,29.74,ESE,115,0.0,-999.0,72,-99.99,,,-99.99,,2013-06-02 10:02:00,
2013-06-02 03:12:00,56.0,47.0,29.74,ESE,115,0.0,-999.0,72,-99.99,,,-99.99,,2013-06-02 10:12:00,
2013-06-02 03:22:00,55.0,47.0,29.74,ESE,115,0.0,-999.0,73,-99.99,,,-99.99,,2013-06-02 10:22:00,
2013-06-02 03:32:00,55.0,47.0,29.74,ESE,115,0.0,-999.0,73,-99.99,,,-99.99,,2013-06-02 10:32:00,
2013-06-02 03:41:00,55.0,47.0,29.74,ESE,115,0.0,-999.0,73,-99.99,,,-99.99,,2013-06-02 10:41:00,
2013-06-02 03:52:00,55.0,47.0,29.74,ESE,115,0.0,-999.0,74,-99.99,,,-99.99,,2013-06-02 10:52:00,
2013-06-02 04:02:00,54.0,46.0,29.73,ESE,115,0.0,-999.0,75,-99.99,,,-99.99,,2013-06-02 11:02:00,
2013-06-02 04:11:00,54.0,46.0,29.73,ESE,115,0.0,-999.0,75,-99.99,,,-99.99,,2013-06-02 11:11:00,
2013-06-02 04:21:00,53.0,46.0,29.74,ESE,115,0.0,-999.0,76,-99.99,,,-99.99,,2013-06-02 11:21:00,
2013-06-02 04:32:00,53.0,46.0,29.74,ESE,115,0.0,-999.0,77,-99.99,,,-99.99,,2013-06-02 11:32:00,
2013-06-02 04:42:00,53.0,46.0,29.74,ESE,115,0.0,-999.0,77,-99.99,,,-99.99,,2013-06-02 11:42:00,
2013-06-02 04:52:00,52.0,46.0,29.74,ESE,115,0.0,-999.0,79,-99.99,,,-99.99,,2013-06-02 11:52:00,
2013-06-02 05:01:00,52.0,46.0,29.74,ESE,115,0.0,-999.0,80,-99.99,,,-99.99,,2013-06-02 12:01:00,
2013-06-02 05:11:00,52.0,46.0,29.74,ESE,115,0.0,-999.0,80,-99.99,,,-99.99,,2013-06-02 12:11:00,
2013-06-02 05:21:00,51.0,45.0,29.73,ESE,115,0.0,-999.0,81,-99.99,,,-99.99,,2013-06-02 12:21:00,
2013-06-02 05:31:00,51.0,46.0,29.74,ESE,115,0.0,-999.0,82,-99.99,,,-99.99,,2013-06-02 12:31:00,
2013-06-02 05:42:00,51.0,46.0,29.74,ESE,115,0.0,-999.0,82,-99.99,,,-99.99,,2013-06-02 12:42:00,
2013-06-02 05:52:00,51.0,46.0,29.74,ESE,115,0.0,-999.0,83,-99.99,,,-99.99,,2013-06-02 12:52:00,
2013-06-02 06:01:00,51.0,46.0,29.74,ESE,115,0.0,-999.0,82,-99.99,,,-99.99,,2013-06-02 13:01:00,
2013-06-02 06:11:00,51.0,46.0,29.74,ESE,115,0.0,-999.0,82,-99.99,,,-99.99,,2013-06-02 13:11:00,
2013-06-02 06:21:00,51.0,46.0,29.75,ESE,115,0.0,-999.0,82,-99.99,,,-99.99,,2013-06-02 13:21:00,
2013-06-02 06:32:00,51.0,46.0,29.75,ESE,115,0.0,-999.0,82,-99.99,,,-99.99,,2013-06-02 13:32:00,
2013-06-02 06:41:00,51.0,46.0,29.75,ESE,115,0.0,-999.0,82,-99.99,,,-99.99,,2013-06-02 13:41:00,
2013-06-02 06:52:00,51.0,46.0,29.75,ESE,115,0.0,-999.0,82,-99.99,,,-99.99,,2013-06-02 13:52:00,
2013-06-02 07:01:00,52.0,47.0,29.75,ESE,115,0.0,-999.0,82,-99.99,,,-99.99,,2013-06-02 14:01:00,
2013-06-02 07:11:00,52.0,47.0,29.75,ESE,115,0.0,-999.0,82,-99.99,,,-99.99,,2013-06-02 14:11:00,
2013-06-02 07:21:00,53.0,47.0,29.75,ESE,115,1.0,-999.0,80,-99.99,,,-99.99,,2013-06-02 14:21:00,
2013-06-02 07:31:00,53.0,47.0,29.76,ESE,115,1.0,-999.0,79,-99.99,,,-99.99,,2013-06-02 14:31:00,
2013-06-02 07:41:00,53.0,47.0,29.76,ESE,115,1.0,-999.0,79,-99.99,,,-99.99,,2013-06-02 14:41:00,
2013-06-02 07:52:00,54.0,47.0,29.76,ESE,115,1.0,-999.0,78,-99.99,,,-99.99,,2013-06-02 14:52:00,
2013-06-02 08:01:00,55.0,48.0,29.76,ESE,115,0.0,-999.0,78,-99.99,,,-99.99,,2013-06-02 15:01:00,
2013-06-02 08:11:00,55.0,48.0,29.76,ESE,115,0.0,-999.0,78,-99.99,,,-99.99,,2013-06-02 15:11:00,
2013-06-02 08:21:00,56.0,49.0,29.76,ESE,115,0.0,-999.0,77,-99.99,,,-99.99,,2013-06-02 15:21:00,
2013-06-02 08:32:00,58.0,50.0,29.76,ESE,115,0.0,-999.0,74,-99.99,,,-99.99,,2013-06-02 15:32:00,
2013-06-02 08:42:00,58.0,50.0,29.76,ESE,115,0.0,-999.0,74,-99.99,,,-99.99,,2013-06-02 15:42:00,
2013-06-02 08:53:00,60.0,51.0,29.76,ESE,115,0.0,-999.0,72,-99.99,,,-99.99,,2013-06-02 15:53:00,
2013-06-02 09:03:00,61.0,50.0,29.75,ENE,72,0.0,-999.0,66,-99.99,,,-99.99,,2013-06-02 16:03:00,
2013-06-02 09:13:00,61.0,50.0,29.75,ENE,72,0.0,-999.0,66,-99.99,,,-99.99,,2013-06-02 16:13:00,
2013-06-02 09:23:00,63.0,51.0,29.75,ENE,71,0.0,-999.0,64,-99.99,,,-99.99,,2013-06-02 16:23:00,
2013-06-02 09:32:00,65.0,51.0,29.75,ENE,67,0.0,-999.0,61,-99.99,,,-99.99,,2013-06-02 16:32:00,
2013-06-02 09:42:00,65.0,51.0,29.75,ENE,67,0.0,-999.0,61,-99.99,,,-99.99,,2013-06-02 16:42:00,
2013-06-02 09:52:00,67.0,51.0,29.75,ENE,65,0.0,-999.0,57,-99.99,,,-99.99,,2013-06-02 16:52:00,
2013-06-02 10:02:00,69.0,54.0,29.74,NE,55,1.0,-999.0,58,-99.99,,,-99.99,,2013-06-02 17:02:00,
2013-06-02 10:12:00,69.0,54.0,29.74,NE,55,1.0,-999.0,58,-99.99,,,-99.99,,2013-06-02 17:12:00,
2013-06-02 10:22:00,72.0,53.0,29.74,South,181,0.0,-999.0,52,-99.99,,,-99.99,,2013-06-02 17:22:00,
2013-06-02 10:32:00,72.0,52.0,29.74,NNE,15,0.0,-999.0,50,-99.99,,,-99.99,,2013-06-02 17:32:00,
2013-06-02 10:42:00,74.0,52.0,29.74,SSW,202,0.0,-999.0,47,-99.99,,,-99.99,,2013-06-02 17:42:00,
2013-06-02 10:52:00,74.0,52.0,29.74,SSW,202,0.0,-999.0,47,-99.99,,,-99.99,,2013-06-02 17:52:00,
2013-06-02 11:01:00,76.0,52.0,29.73,SSE,147,0.0,-999.0,44,-99.99,,,-99.99,,2013-06-02 18:01:00,
2013-06-02 11:11:00,76.0,52.0,29.73,SSE,147,0.0,-999.0,44,-99.99,,,-99.99,,2013-06-02 18:11:00,
2013-06-02 11:21:00,76.0,52.0,29.73,ESE,107,0.0,-999.0,44,-99.99,,,-99.99,,2013-06-02 18:21:00,
2013-06-02 11:31:00,77.0,53.0,29.72,East,95,0.0,-999.0,44,-99.99,,,-99.99,,2013-06-02 18:31:00,
2013-06-02 11:42:00,78.0,54.0,29.72,NNW,329,1.0,-999.0,44,-99.99,,,-99.99,,2013-06-02 18:42:00,
2013-06-02 11:52:00,78.0,54.0,29.72,NNW,329,1.0,-999.0,44,-99.99,,,-99.99,,2013-06-02 18:52:00,
2013-06-02 12:01:00,80.0,56.0,29.72,SW,225,1.0,-999.0,44,-99.99,,,-99.99,,2013-06-02 19:01:00,
2013-06-02 12:11:00,80.0,56.0,29.72,SW,225,1.0,-999.0,44,-99.99,,,-99.99,,2013-06-02 19:11:00,
2013-06-02 12:21:00,80.0,55.0,29.71,NNW,337,1.0,-999.0,42,-99.99,,,-99.99,,2013-06-02 19:21:00,
2013-06-02 12:31:00,80.0,55.0,29.70,ESE,111,2.0,-999.0,42,-99.99,,,-99.99,,2013-06-02 19:31:00,
2013-06-02 12:41:00,80.0,55.0,29.70,ESE,111,2.0,-999.0,42,-99.99,,,-99.99,,2013-06-02 19:41:00,
2013-06-02 12:52:00,80.0,55.0,29.70,NW,309,1.0,-999.0,42,-99.99,,,-99.99,,2013-06-02 19:52:00,
2013-06-02 13:02:00,81.0,56.0,29.70,ESE,121,2.0,-999.0,42,-99.99,,,-99.99,,2013-06-02 20:02:00,
2013-06-02 13:11:00,81.0,56.0,29.70,ESE,121,2.0,-999.0,42,-99.99,,,-99.99,,2013-06-02 20:11:00,
2013-06-02 13:21:00,81.0,56.0,29.70,ESE,122,2.0,-999.0,43,-99.99,,,-99.99,,2013-06-02 20:21:00,
2013-06-02 13:31:00,81.0,55.0,29.69,SSW,212,1.0,-999.0,41,-99.99,,,-99.99,,2013-06-02 20:31:00,
2013-06-02 13:42:00,81.0,55.0,29.69,SSW,212,1.0,-999.0,41,-99.99,,,-99.99,,2013-06-02 20:42:00,
2013-06-02 13:52:00,82.0,55.0,29.69,SSE,167,2.0,-999.0,39,-99.99,,,-99.99,,2013-06-02 20:52:00,
2013-06-02 14:01:00,81.0,54.0,29.69,ESE,114,2.0,-999.0,40,-99.99,,,-99.99,,2013-06-02 21:01:00,
2013-06-02 14:11:00,81.0,54.0,29.69,ESE,114,2.0,-999.0,40,-99.99,,,-99.99,,2013-06-02 21:11:00,
2013-06-02 14:21:00,81.0,54.0,29.68,SE,140,3.0,-999.0,39,-99.99,,,-99.99,,2013-06-02 21:21:00,
2013-06-02 14:33:00,82.0,55.0,29.68,SE,128,2.0,-999.0,39,-99.99,,,-99.99,,2013-06-02 21:33:00,
2013-06-02 14:42:00,82.0,55.0,29.68,SE,128,2.0,-999.0,39,-99.99,,,-99.99,,2013-06-02 21:42:00,
2013-06-02 14:53:00,82.0,53.0,29.68,ESE,110,2.0,-999.0,37,-99.99,,,-99.99,,2013-06-02 21:53:00,
2013-06-02 15:02:00,82.0,53.0,29.68,ESE,123,2.0,-999.0,37,-99.99,,,-99.99,,2013-06-02 22:02:00,
2013-06-02 15:12:00,82.0,53.0,29.68,ESE,123,2.0,-999.0,37,-99.99,,,-99.99,,2013-06-02 22:12:00,
2013-06-02 15:22:00,82.0,53.0,29.67,ESE,121,2.0,-999.0,37,-99.99,,,-99.99,,2013-06-02 22:22:00,
2013-06-02 15:33:00,81.0,53.0,29.67,SE,144,4.0,-999.0,38,-99.99,,,-99.99,,2013-06-02 22:33:00,
2013-06-02 15:42:00,81.0,53.0,29.67,SE,144,4.0,-999.0,38,-99.99,,,-99.99,,2013-06-02 22:42:00,
2013-06-02 15:52:00,80.0,52.0,29.67,ESE,111,4.0,-999.0,38,-99.99,,,-99.99,,2013-06-02 22:52:00,
2013-06-02 16:02:00,81.0,52.0,29.66,SE,130,3.0,-999.0,37,-99.99,,,-99.99,,2013-06-02 23:02:00,
2013-06-02 16:12:00,81.0,52.0,29.66,SE,130,3.0,-999.0,37,-99.99,,,-99.99,,2013-06-02 23:12:00,
2013-06-02 16:22:00,80.0,52.0,29.66,SE,125,4.0,-999.0,38,-99.99,,,-99.99,,2013-06-02 23:22:00,
2013-06-02 16:32:00,79.0,52.0,29.66,SSE,156,5.0,-999.0,39,-99.99,,,-99.99,,2013-06-02 23:32:00,
2013-06-02 16:42:00,79.0,52.0,29.66,SSE,156,5.0,-999.0,39,-99.99,,,-99.99,,2013-06-02 23:42:00,
2013-06-02 16:52:00,81.0,54.0,29.65,SSE,162,2.0,-999.0,39,-99.99,,,-99.99,,2013-06-02 23:52:00,
2013-06-02 17:01:00,79.0,53.0,29.65,SE,130,4.0,-999.0,41,-99.99,,,-99.99,,2013-06-03 00:01:00,
2013-06-02 17:11:00,79.0,53.0,29.65,SE,130,4.0,-999.0,41,-99.99,,,-99.99,,2013-06-03 00:11:00,
2013-06-02 17:21:00,78.0,53.0,29.65,ESE,111,3.0,-999.0,42,-99.99,,,-99.99,,2013-06-03 00:21:00,
2013-06-02 17:31:00,76.0,53.0,29.64,ESE,121,4.0,-999.0,45,-99.99,,,-99.99,,2013-06-03 00:31:00,
2013-06-02 17:52:00,76.0,54.0,29.64,SE,131,3.0,-999.0,46,-99.99,,,-99.99,,2013-06-03 00:52:00,
2013-06-02 18:01:00,76.0,55.0,29.64,ESE,119,3.0,-999.0,48,-99.99,,,-99.99,,2013-06-03 01:01:00,
2013-06-02 18:11:00,76.0,55.0,29.64,ESE,119,3.0,-999.0,48,-99.99,,,-99.99,,2013-06-03 01:11:00,
2013-06-02 18:21:00,76.0,54.0,29.63,ESE,117,2.0,-999.0,46,-99.99,,,-99.99,,2013-06-03 01:21:00,
2013-06-02 18:31:00,74.0,54.0,29.63,SE,136,3.0,-999.0,49,-99.99,,,-99.99,,2013-06-03 01:31:00,
2013-06-02 18:42:00,74.0,54.0,29.63,SE,136,3.0,-999.0,49,-99.99,,,-99.99,,2013-06-03 01:42:00,
2013-06-02 18:52:00,73.0,53.0,29.63,SE,140,3.0,-999.0,50,-99.99,,,-99.99,,2013-06-03 01:52:00,
2013-06-02 19:02:00,72.0,52.0,29.63,SE,138,3.0,-999.0,50,-99.99,,,-99.99,,2013-06-03 02:02:00,
2013-06-02 19:12:00,72.0,52.0,29.63,SE,138,3.0,-999.0,50,-99.99,,,-99.99,,2013-06-03 02:12:00,
2013-06-02 19:22:00,71.0,53.0,29.63,ESE,117,2.0,-999.0,53,-99.99,,,-99.99,,2013-06-03 02:22:00,
2013-06-02 19:32:00,70.0,54.0,29.63,ESE,122,0.0,-999.0,56,-99.99,,,-99.99,,2013-06-03 02:32:00,
2013-06-02 19:42:00,70.0,54.0,29.63,ESE,122,0.0,-999.0,56,-99.99,,,-99.99,,2013-06-03 02:42:00,
2013-06-02 19:52:00,67.0,52.0,29.63,ESE,117,1.0,-999.0,59,-99.99,,,-99.99,,2013-06-03 02:52:00,
2013-06-02 20:02:00,65.0,52.0,29.64,ESE,120,2.0,-999.0,62,-99.99,,,-99.99,,2013-06-03 03:02:00,
2013-06-02 20:12:00,65.0,52.0,29.64,ESE,120,2.0,-999.0,62,-99.99,,,-99.99,,2013-06-03 03:12:00,
2013-06-02 20:22:00,63.0,51.0,29.64,SE,128,2.0,-999.0,65,-99.99,,,-99.99,,2013-06-03 03:22:00,
2013-06-02 20:33:00,62.0,51.0,29.65,SE,127,2.0,-999.0,67,-99.99,,,-99.99,,2013-06-03 03:33:00,
2013-06-02 20:43:00,62.0,51.0,29.65,SE,127,2.0,-999.0,67,-99.99,,,-99.99,,2013-06-03 03:43:00,
2013-06-02 20:53:00,61.0,50.0,29.65,SE,135,1.0,-999.0,68,-99.99,,,-99.99,,2013-06-03 03:53:00,
2013-06-02 21:02:00,58.0,49.0,29.65,SE,134,1.0,-999.0,71,-99.99,,,-99.99,,2013-06-03 04:02:00,
2013-06-02 21:23:00,57.0,48.0,29.66,SE,138,1.0,-999.0,73,-99.99,,,-99.99,,2013-06-03 04:23:00,
2013-06-02 21:33:00,57.0,48.0,29.67,SE,129,2.0,-999.0,73,-99.99,,,-99.99,,2013-06-03 04:33:00,
2013-06-02 21:42:00,57.0,48.0,29.67,SE,129,2.0,-999.0,73,-99.99,,,-99.99,,2013-06-03 04:42:00,
2013-06-02 21:53:00,57.0,48.0,29.67,ESE,121,1.0,-999.0,73,-99.99,,,-99.99,,2013-06-03 04:53:00,
2013-06-02 22:02:00,57.0,49.0,29.68,ESE,120,1.0,-999.0,74,-99.99,,,-99.99,,2013-06-03 05:02:00,
2013-06-02 22:12:00,57.0,49.0,29.68,ESE,120,1.0,-999.0,74,-99.99,,,-99.99,,2013-06-03 05:12:00,
2013-06-02 22:22:00,57.0,49.0,29.68,ESE,120,0.0,-999.0,74,-99.99,,,-99.99,,2013-06-03 05:22:00,
2013-06-02 22:32:00,56.0,48.0,29.69,ESE,120,1.0,-999.0,75,-99.99,,,-99.99,,2013-06-03 05:32:00,
2013-06-02 22:42:00,56.0,48.0,29.69,ESE,120,1.0,-999.0,75,-99.99,,,-99.99,,2013-06-03 05:42:00,
2013-06-02 22:52:00,55.0,48.0,29.69,ESE,120,1.0,-999.0,76,-99.99,,,-99.99,,2013-06-03 05:52:00,
2013-06-02 23:02:00,55.0,48.0,29.70,ESE,120,0.0,-999.0,77,-99.99,,,-99.99,,2013-06-03 06:02:00,
2013-06-02 23:12:00,55.0,48.0,29.70,ESE,120,0.0,-999.0,77,-99.99,,,-99.99,,2013-06-03 06:12:00,
2013-06-02 23:22:00,54.0,47.0,29.70,ESE,120,0.0,-999.0,78,-99.99,,,-99.99,,2013-06-03 06:22:00,
2013-06-02 23:32:00,54.0,48.0,29.70,ESE,120,0.0,-999.0,79,-99.99,,,-99.99,,2013-06-03 06:32:00,
2013-06-02 23:42:00,54.0,48.0,29.70,ESE,120,0.0,-999.0,79,-99.99,,,-99.99,,2013-06-03 06:42:00,
2013-06-02 23:52:00,53.0,47.0,29.70,ESE,120,0.0,-999.0,80,-99.99,,,-99.99,,2013-06-03 06:52:00,